Spearfish, SD

8:16 AM MDT on June 27, 2017 (GMT -0600)
Black Hills-Ice

Weather History for KSPF - January, 2014

Change the Weather History Date:

Sunday, January 26, 2014

  Actual Average (KEFC) Record (KEFC)
Temperature  
Mean Temperature 22 °F -  
Max Temperature 41 °F 34 °F 64 °F (1982)
Min Temperature 1 °F 14 °F -32 °F (1949)
Degree Days  
Heating Degree Days 43    
Moisture  
Dew Point 13 °F    
Average Humidity 67    
Maximum Humidity 100    
Minimum Humidity 48    
Precipitation  
Precipitation 1.56 in - - ()
Sea Level Pressure  
Sea Level Pressure 29.94 in    
Wind  
Wind Speed 24 mph (WNW)    
Max Wind Speed 33 mph    
Max Gust Speed 45 mph    
Visibility 9 miles    
Events Rain , Snow    
Averages and records for this station are not official NWS values.
T = Trace of Precipitation, MM = Missing Value Source: NWS Daily Summary

Daily Weather History Graph

Daily Weather History Graph

Search for Another Location

Airport or City:

Trip Planner

Search our weather history database for the weather conditions in past years. The results will help you decide how hot, cold, wet, or windy it might be!

Date:

Astronomy

Jan. 26, 2014 Rise Set
Actual Time 8:19 AM CST 5:56 PM CST
Civil Twilight 7:48 AM CST 6:27 PM CST
Nautical Twilight 7:13 AM CST 7:02 PM CST
Astronomical Twilight 6:38 AM CST 7:37 PM CST
Moon 4:00 AM CST (1/26) 1:46 PM CST (1/26)
Length of Visible Light 10h 39m
Length of Day
9h 36m
Waning Crescent, 23% of the Moon is Illuminated
Jan 26
Waning Crescent
Jan 30
New
Feb 6
First Quarter
Feb 14
Full
Feb 22
Last Quarter

Hourly Weather History & Observations

Time (CST) Temp. Windchill Dew Point Humidity Pressure Visibility Wind Dir Wind Speed Gust Speed Precip Events Conditions
12:15 AM 41.0 °F 29.7 °F 26.6 °F 57% 29.80 in 10.0 mi NW 31.1 mph 43.7 mph N/A   Mostly Cloudy
12:35 AM 41.0 °F 29.7 °F 26.6 °F 57% 29.80 in 10.0 mi WNW 31.1 mph 35.7 mph N/A   Partly Cloudy
12:55 AM 39.2 °F 27.6 °F 26.6 °F 61% 29.81 in 10.0 mi WNW 28.8 mph 41.4 mph N/A   Clear
1:15 AM 39.2 °F 28.0 °F 26.6 °F 61% 29.81 in 10.0 mi NW 26.5 mph 39.1 mph N/A   Clear
1:35 AM 39.2 °F 27.8 °F 24.8 °F 56% 29.80 in 10.0 mi WNW 27.6 mph 39.1 mph N/A   Clear
1:55 AM 37.4 °F 26.4 °F 24.8 °F 60% 29.79 in 10.0 mi WNW 23.0 mph 36.8 mph N/A   Clear
2:15 AM 39.2 °F 28.3 °F 26.6 °F 61% 29.78 in 10.0 mi WNW 25.3 mph 32.2 mph N/A   Clear
2:35 AM 39.2 °F 29.6 °F 26.6 °F 61% 29.78 in 10.0 mi WNW 19.6 mph 39.1 mph N/A   Clear
2:55 AM 39.2 °F 28.5 °F 26.6 °F 61% 29.77 in 10.0 mi WNW 24.2 mph 33.4 mph N/A   Clear
3:15 AM 39.2 °F 29.6 °F 24.8 °F 56% 29.77 in 10.0 mi West 19.6 mph 33.4 mph N/A   Clear
3:35 AM 39.2 °F 28.5 °F 24.8 °F 56% 29.76 in 10.0 mi WNW 24.2 mph 34.5 mph N/A   Clear
3:55 AM 39.2 °F 28.3 °F 24.8 °F 56% 29.75 in 10.0 mi West 25.3 mph 34.5 mph N/A   Partly Cloudy
4:15 AM 41.0 °F 30.9 °F 24.8 °F 53% 29.74 in 10.0 mi WNW 24.2 mph 32.2 mph N/A   Mostly Cloudy
4:35 AM 41.0 °F 30.5 °F 24.8 °F 53% 29.74 in 10.0 mi WNW 26.5 mph 41.4 mph N/A   Overcast
4:55 AM 41.0 °F 30.5 °F 24.8 °F 53% 29.73 in 10.0 mi West 26.5 mph 40.3 mph N/A   Overcast
5:15 AM 41.0 °F 31.9 °F 24.8 °F 53% 29.73 in 10.0 mi West 19.6 mph 40.3 mph N/A   Overcast
5:35 AM 41.0 °F 31.4 °F 24.8 °F 53% 29.73 in 10.0 mi West 21.9 mph 35.7 mph N/A   Overcast
5:55 AM 41.0 °F 31.1 °F 24.8 °F 53% 29.72 in 10.0 mi West 23.0 mph 29.9 mph N/A   Overcast
6:15 AM 41.0 °F 31.4 °F 26.6 °F 57% 29.72 in 10.0 mi West 21.9 mph 32.2 mph N/A   Overcast
6:35 AM 41.0 °F 31.1 °F 26.6 °F 57% 29.71 in 10.0 mi West 23.0 mph 32.2 mph N/A   Overcast
6:55 AM 39.2 °F 27.8 °F 26.6 °F 61% 29.71 in 10.0 mi WNW 27.6 mph 36.8 mph N/A   Overcast
7:15 AM 39.2 °F 27.8 °F 28.4 °F 65% 29.71 in 10.0 mi WNW 27.6 mph 34.5 mph N/A Rain Light Rain
7:35 AM 37.4 °F 28.5 °F 30.2 °F 75% 29.71 in 10.0 mi West 15.0 mph 24.2 mph N/A   Overcast
7:55 AM 37.4 °F 26.6 °F 30.2 °F 75% 29.69 in 10.0 mi West 21.9 mph 32.2 mph N/A   Overcast
8:15 AM 37.4 °F 25.6 °F 30.2 °F 75% 29.70 in 10.0 mi West 26.5 mph 33.4 mph N/A   Overcast
8:35 AM 37.4 °F 26.1 °F 30.2 °F 75% 29.71 in 10.0 mi WNW 24.2 mph 35.7 mph N/A   Overcast
8:55 AM 37.4 °F 26.4 °F 30.2 °F 75% 29.72 in 10.0 mi West 23.0 mph 32.2 mph N/A   Overcast
9:15 AM 35.6 °F 22.7 °F 28.4 °F 75% 29.72 in 10.0 mi NW 28.8 mph 40.3 mph N/A   Overcast
9:35 AM 35.6 °F 23.7 °F 28.4 °F 75% 29.72 in 10.0 mi West 24.2 mph 34.5 mph N/A   Mostly Cloudy
9:55 AM 35.6 °F 23.2 °F 30.2 °F 81% 29.72 in 2.5 mi WNW 26.5 mph 38.0 mph 0.03 in Snow Light Snow
10:15 AM 33.8 °F 20.8 °F 32.0 °F 93% 29.72 in 5.0 mi WNW 26.5 mph 33.4 mph 0.01 in   Mostly Cloudy
10:35 AM 32.0 °F 17.0 °F 32.0 °F 100% 29.74 in 1.0 mi NW 33.4 mph 41.4 mph 0.16 in Snow Light Snow
10:55 AM 32.0 °F 17.6 °F 30.2 °F 93% 29.76 in 1.5 mi NW 29.9 mph 40.3 mph 0.26 in Snow Light Snow
11:15 AM 23.0 °F 6.0 °F 19.4 °F 86% 29.85 in 0.2 mi NNW 27.6 mph 42.6 mph 0.21 in   Overcast
11:35 AM 23.0 °F 7.2 °F 19.4 °F 86% 29.87 in 0.5 mi NW 23.0 mph 35.7 mph 0.49 in Snow Snow
11:55 AM 21.2 °F 4.9 °F 19.4 °F 93% 29.90 in 0.5 mi NW 23.0 mph 35.7 mph 1.11 in Snow Snow
12:15 PM 19.4 °F 2.8 °F 15.8 °F 86% 29.92 in 5.0 mi WNW 21.9 mph 35.7 mph 0.02 in Snow Light Snow
12:35 PM 19.4 °F 4.1 °F 15.8 °F 86% 29.93 in 3.0 mi WNW 18.4 mph 26.5 mph 0.04 in Snow Light Snow
12:55 PM 19.4 °F 2.1 °F 15.8 °F 86% 29.95 in 3.0 mi NW 24.2 mph 32.2 mph 0.10 in Snow Light Snow
1:15 PM 17.6 °F -0.6 °F 10.4 °F 73% 29.97 in 4.0 mi NW 25.3 mph 44.9 mph 0.01 in Snow Light Snow
1:35 PM 17.6 °F -1.6 °F 8.6 °F 68% 30.00 in 10.0 mi NW 28.8 mph 39.1 mph 0.01 in Snow Light Snow
1:55 PM 15.8 °F -2.7 °F 3.2 °F 58% 30.01 in 10.0 mi NW 24.2 mph 41.4 mph 0.02 in Snow Light Snow
2:15 PM 14.0 °F -5.5 °F 3.2 °F 62% 30.03 in 10.0 mi NW 25.3 mph 39.1 mph N/A Snow Light Snow
2:35 PM 14.0 °F -6.2 °F 5.0 °F 67% 30.03 in 10.0 mi WNW 27.6 mph 41.4 mph N/A   Mostly Cloudy
2:55 PM 14.0 °F -5.1 °F 1.4 °F 57% 30.05 in 10.0 mi WNW 24.2 mph 40.3 mph 0.01 in Snow Light Snow
3:15 PM 14.0 °F -7.1 °F -0.4 °F 53% 30.07 in 10.0 mi WNW 31.1 mph 44.9 mph N/A Snow Light Snow
3:35 PM 12.2 °F -8.2 °F 1.4 °F 62% 30.09 in 10.0 mi NW 26.5 mph 34.5 mph 0.01 in Snow Light Snow
3:55 PM 10.4 °F -10.3 °F 1.4 °F 67% 30.09 in 10.0 mi NW 25.3 mph 38.0 mph 0.01 in Snow Light Snow
4:15 PM 10.4 °F -8.2 °F -0.4 °F 62% 30.10 in 10.0 mi NW 19.6 mph 39.1 mph N/A Snow Light Snow
4:35 PM 10.4 °F -10.3 °F -2.2 °F 57% 30.11 in 10.0 mi NW 25.3 mph 40.3 mph 0.01 in Snow Light Snow
4:55 PM 10.4 °F -10.7 °F -2.2 °F 57% 30.12 in 10.0 mi NW 26.5 mph 36.8 mph 0.01 in Snow Light Snow
5:15 PM 8.6 °F -13.1 °F -7.6 °F 48% 30.13 in 10.0 mi NW 26.5 mph 39.1 mph N/A Snow Light Snow
5:35 PM 6.8 °F -13.4 °F -7.6 °F 52% 30.15 in 10.0 mi NW 20.7 mph 32.2 mph 0.01 in Snow Light Snow
5:55 PM 6.8 °F -14.7 °F -7.6 °F 52% 30.16 in 10.0 mi WNW 24.2 mph 34.5 mph 0.01 in Snow Light Snow
6:15 PM 6.8 °F -12.4 °F -5.8 °F 56% 30.17 in 10.0 mi WNW 18.4 mph 28.8 mph N/A   Clear
6:35 PM 6.8 °F -13.4 °F -5.8 °F 56% 30.17 in 10.0 mi WNW 20.7 mph 27.6 mph N/A   Clear
6:55 PM 6.8 °F -11.8 °F -4.0 °F 61% 30.18 in 10.0 mi WNW 17.3 mph 20.7 mph N/A   Mostly Cloudy
7:15 PM 6.8 °F -11.3 °F -4.0 °F 61% 30.18 in 10.0 mi WNW 16.1 mph 25.3 mph N/A   Overcast
7:35 PM 6.8 °F -12.4 °F -2.2 °F 67% 30.19 in 10.0 mi WNW 18.4 mph 24.2 mph N/A   Overcast
7:55 PM 5.0 °F -14.2 °F -2.2 °F 72% 30.19 in 10.0 mi WNW 17.3 mph 25.3 mph N/A   Overcast
8:15 PM 5.0 °F -13.6 °F -2.2 °F 72% 30.20 in 10.0 mi WNW 16.1 mph 19.6 mph N/A   Overcast
8:35 PM 5.0 °F -12.3 °F -2.2 °F 72% 30.21 in 10.0 mi WNW 13.8 mph - N/A   Overcast
8:55 PM 5.0 °F -11.6 °F -2.2 °F 72% 30.21 in 10.0 mi WNW 12.7 mph - N/A   Mostly Cloudy
9:15 PM 5.0 °F -12.3 °F -2.2 °F 72% 30.20 in 10.0 mi WNW 13.8 mph 24.2 mph N/A   Mostly Cloudy
9:35 PM 5.0 °F -11.6 °F -4.0 °F 66% 30.21 in 10.0 mi WNW 12.7 mph 20.7 mph N/A   Mostly Cloudy
9:55 PM 5.0 °F -13.6 °F -4.0 °F 66% 30.21 in 10.0 mi WNW 16.1 mph 20.7 mph N/A   Mostly Cloudy
10:15 PM 5.0 °F -13.6 °F -4.0 °F 66% 30.21 in 10.0 mi WNW 16.1 mph 21.9 mph N/A   Mostly Cloudy
10:35 PM 5.0 °F -14.2 °F -4.0 °F 66% 30.21 in 10.0 mi WNW 17.3 mph 21.9 mph N/A   Partly Cloudy
10:55 PM 5.0 °F -10.0 °F -4.0 °F 66% 30.21 in 10.0 mi NW 10.4 mph 20.7 mph N/A   Scattered Clouds
11:15 PM 3.2 °F -13.1 °F -2.2 °F 78% 30.22 in 10.0 mi WNW 11.5 mph - N/A   Scattered Clouds
11:35 PM 3.2 °F -12.2 °F -4.0 °F 72% 30.22 in 10.0 mi NW 10.4 mph - N/A   Scattered Clouds
11:55 PM 1.4 °F -15.3 °F -2.2 °F 85% 30.22 in 10.0 mi NW 11.5 mph - N/A   Partly Cloudy